• Em Portugal
  • Lista de países
  • Para 7 dias
  • Temperatura da água
  • Mapas de satélite
  • Mapa do tempo
  • Widgets de tempo
  • user-avatar
    Iniciar Sessão

    Previsão horária em Robertsport

    Hoje, 19 Fevereiro, Segunda-feira

    Tempo Temperatura Precipitação Vento Pressão Humidade
    00:00 +27°C° 0 mm 3 m/s 754 mmHg 93%
    01:00 +27°C° 0 mm 2 m/s 754 mmHg 94%
    02:00 +26°C° 0 mm 2 m/s 753 mmHg 94%
    03:00 +26°C° 0 mm 2 m/s 754 mmHg 94%
    04:00 +26°C° 0 mm 2 m/s 754 mmHg 94%
    05:00 +26°C° 0 mm 1 m/s 754 mmHg 94%
    06:00 +27°C° 0,1 mm 1 m/s 754 mmHg 89%
    07:00 +28°C° 0,1 mm 2 m/s 755 mmHg 83%
    08:00 +29°C° 0,1 mm 2 m/s 755 mmHg 78%
    09:00 +31°C° 0,3 mm 2 m/s 755 mmHg 71%
    10:00 +32°C° 0,3 mm 2 m/s 755 mmHg 65%
    11:00 +35°C° 0,3 mm 3 m/s 755 mmHg 58%
    12:00 +35°C° 0,4 mm 3 m/s 754 mmHg 57%
    13:00 +35°C° 0,4 mm 3 m/s 753 mmHg 56%
    14:00 +35°C° 0,4 mm 4 m/s 753 mmHg 55%
    15:00 +34°C° 0,2 mm 4 m/s 753 mmHg 59%
    16:00 +33°C° 0,2 mm 3 m/s 753 mmHg 64%
    17:00 +31°C° 0,2 mm 3 m/s 753 mmHg 68%
    18:00 +30°C° 0,4 mm 3 m/s 753 mmHg 74%
    19:00 +29°C° 0,4 mm 3 m/s 754 mmHg 79%
    20:00 +28°C° 0,4 mm 3 m/s 754 mmHg 85%
    21:00 +28°C° 0,1 mm 3 m/s 754 mmHg 86%
    22:00 +27°C° 0,1 mm 3 m/s 754 mmHg 87%
    23:00 +27°C° 0,1 mm 3 m/s 754 mmHg 89%

    Amanhã, 20 Fevereiro, Terça-feira

    Tempo Temperatura Precipitação Vento Pressão Humidade
    00:00 +27°C° 0 mm 3 m/s 754 mmHg 90%
    01:00 +27°C° 0 mm 2 m/s 754 mmHg 91%
    02:00 +26°C° 0 mm 2 m/s 753 mmHg 92%
    03:00 +26°C° 0 mm 2 m/s 753 mmHg 93%
    04:00 +26°C° 0 mm 2 m/s 753 mmHg 93%
    05:00 +26°C° 0 mm 2 m/s 754 mmHg 94%
    06:00 +27°C° 0 mm 2 m/s 754 mmHg 89%
    07:00 +28°C° 0 mm 2 m/s 755 mmHg 84%
    08:00 +29°C° 0 mm 2 m/s 755 mmHg 79%
    09:00 +31°C° 0 mm 2 m/s 755 mmHg 68%
    10:00 +34°C° 0 mm 2 m/s 755 mmHg 58%
    11:00 +37°C° 0 mm 2 m/s 755 mmHg 48%
    12:00 +36°C° 0 mm 3 m/s 754 mmHg 49%
    13:00 +36°C° 0 mm 3 m/s 753 mmHg 50%
    14:00 +35°C° 0 mm 4 m/s 752 mmHg 51%
    15:00 +35°C° 0 mm 4 m/s 752 mmHg 54%
    16:00 +34°C° 0 mm 4 m/s 752 mmHg 57%
    17:00 +33°C° 0 mm 4 m/s 752 mmHg 60%
    18:00 +32°C° 0 mm 4 m/s 752 mmHg 67%
    19:00 +29°C° 0 mm 3 m/s 753 mmHg 74%
    20:00 +28°C° 0 mm 3 m/s 753 mmHg 81%
    21:00 +28°C° 0 mm 3 m/s 754 mmHg 83%
    22:00 +27°C° 0 mm 3 m/s 754 mmHg 86%
    23:00 +27°C° 0 mm 3 m/s 754 mmHg 88%

    Depois de amanhã, 21 Fevereiro, Quarta-feira

    Tempo Temperatura Precipitação Vento Pressão Humidade
    00:00 +27°C° 0 mm 3 m/s 754 mmHg 90%
    01:00 +27°C° 0 mm 3 m/s 753 mmHg 91%
    02:00 +27°C° 0 mm 2 m/s 753 mmHg 93%
    03:00 +26°C° 0 mm 2 m/s 753 mmHg 93%
    04:00 +26°C° 0 mm 2 m/s 753 mmHg 94%
    05:00 +26°C° 0 mm 2 m/s 754 mmHg 94%
    06:00 +27°C° 0,1 mm 2 m/s 754 mmHg 87%
    07:00 +28°C° 0,1 mm 3 m/s 755 mmHg 81%
    08:00 +30°C° 0,1 mm 3 m/s 755 mmHg 74%
    09:00 +31°C° 0 mm 3 m/s 755 mmHg 66%
    10:00 +34°C° 0 mm 3 m/s 755 mmHg 57%
    11:00 +36°C° 0 mm 4 m/s 754 mmHg 49%
    12:00 +36°C° 0,1 mm 4 m/s 753 mmHg 49%
    13:00 +36°C° 0,1 mm 5 m/s 753 mmHg 48%
    14:00 +36°C° 0,1 mm 5 m/s 752 mmHg 48%
    15:00 +35°C° 0 mm 5 m/s 752 mmHg 52%
    16:00 +34°C° 0 mm 5 m/s 752 mmHg 56%
    17:00 +32°C° 0 mm 5 m/s 752 mmHg 59%
    18:00 +30°C° 0 mm 4 m/s 752 mmHg 64%
    19:00 +29°C° 0 mm 4 m/s 753 mmHg 69%
    20:00 +28°C° 0 mm 4 m/s 753 mmHg 74%
    21:00 +27°C° 0 mm 3 m/s 753 mmHg 76%
    22:00 +27°C° 0 mm 3 m/s 753 mmHg 79%
    23:00 +27°C° 0 mm 3 m/s 754 mmHg 81%

    22 Fevereiro, Quinta-feira

    Tempo Temperatura Precipitação Vento Pressão Humidade
    00:00 +26°C° 0 mm 3 m/s 753 mmHg 82%
    01:00 +26°C° 0 mm 3 m/s 752 mmHg 84%
    02:00 +26°C° 0 mm 3 m/s 752 mmHg 85%
    03:00 +26°C° 0 mm 3 m/s 752 mmHg 86%
    04:00 +25°C° 0 mm 2 m/s 752 mmHg 87%
    05:00 +25°C° 0 mm 2 m/s 752 mmHg 88%
    06:00 +26°C° 0 mm 2 m/s 753 mmHg 81%
    07:00 +28°C° 0 mm 2 m/s 753 mmHg 73%
    08:00 +29°C° 0 mm 2 m/s 754 mmHg 66%
    09:00 +31°C° 0 mm 2 m/s 754 mmHg 56%
    10:00 +34°C° 0 mm 3 m/s 754 mmHg 46%
    11:00 +36°C° 0 mm 3 m/s 754 mmHg 36%
    12:00 +37°C° 0 mm 4 m/s 753 mmHg 36%
    13:00 +37°C° 0 mm 4 m/s 752 mmHg 36%
    14:00 +37°C° 0 mm 5 m/s 751 mmHg 37%
    15:00 +35°C° 0 mm 5 m/s 751 mmHg 41%
    16:00 +34°C° 0 mm 4 m/s 751 mmHg 46%
    17:00 +32°C° 0 mm 4 m/s 751 mmHg 50%
    18:00 +30°C° 0 mm 4 m/s 752 mmHg 59%
    19:00 +28°C° 0 mm 4 m/s 752 mmHg 69%
    20:00 +27°C° 0 mm 3 m/s 753 mmHg 78%
    21:00 +26°C° 0 mm 3 m/s 753 mmHg 80%
    22:00 +26°C° 0 mm 3 m/s 753 mmHg 83%
    23:00 +26°C° 0 mm 3 m/s 753 mmHg 86%

    23 Fevereiro, Sexta-feira

    Tempo Temperatura Precipitação Vento Pressão Humidade
    00:00 +25°C° 0 mm 3 m/s 753 mmHg 87%
    01:00 +25°C° 0 mm 3 m/s 752 mmHg 88%
    02:00 +25°C° 0 mm 3 m/s 752 mmHg 89%
    03:00 +25°C° 0 mm 3 m/s 752 mmHg 90%
    04:00 +25°C° 0 mm 3 m/s 752 mmHg 91%
    05:00 +24°C° 0 mm 2 m/s 752 mmHg 91%
    06:00 +26°C° 0 mm 3 m/s 753 mmHg 85%
    07:00 +27°C° 0 mm 3 m/s 753 mmHg 78%
    08:00 +28°C° 0 mm 3 m/s 754 mmHg 71%
    09:00 +30°C° 0 mm 3 m/s 754 mmHg 61%
    10:00 +33°C° 0 mm 4 m/s 754 mmHg 50%
    11:00 +35°C° 0 mm 4 m/s 753 mmHg 40%
    12:00 +36°C° 0 mm 4 m/s 753 mmHg 38%
    13:00 +36°C° 0 mm 4 m/s 752 mmHg 37%
    14:00 +37°C° 0 mm 4 m/s 751 mmHg 35%
    15:00 +36°C° 0 mm 5 m/s 752 mmHg 40%
    16:00 +34°C° 0 mm 5 m/s 752 mmHg 45%
    17:00 +33°C° 0 mm 5 m/s 752 mmHg 51%
    18:00 +30°C° 0 mm 4 m/s 752 mmHg 57%
    19:00 +28°C° 0 mm 4 m/s 753 mmHg 64%
    20:00 +27°C° 0 mm 4 m/s 754 mmHg 71%
    21:00 +26°C° 0 mm 3 m/s 754 mmHg 73%
    22:00 +26°C° 0 mm 3 m/s 754 mmHg 75%
    23:00 +26°C° 0 mm 3 m/s 754 mmHg 77%

    24 Fevereiro, Sábado

    Tempo Temperatura Precipitação Vento Pressão Humidade
    00:00 +25°C° 0 mm 3 m/s 754 mmHg 78%
    01:00 +25°C° 0 mm 3 m/s 753 mmHg 79%
    02:00 +25°C° 0 mm 2 m/s 753 mmHg 80%
    03:00 +25°C° 0 mm 2 m/s 753 mmHg 81%
    04:00 +24°C° 0 mm 2 m/s 753 mmHg 82%
    05:00 +24°C° 0 mm 2 m/s 753 mmHg 82%
    06:00 +26°C° 0 mm 2 m/s 754 mmHg 75%
    07:00 +27°C° 0 mm 2 m/s 754 mmHg 69%
    08:00 +29°C° 0 mm 2 m/s 755 mmHg 62%
    09:00 +30°C° 0 mm 2 m/s 754 mmHg 56%
    10:00 +31°C° 0 mm 2 m/s 754 mmHg 51%
    11:00 +33°C° 0 mm 3 m/s 754 mmHg 45%
    12:00 +34°C° 0 mm 3 m/s 753 mmHg 44%
    13:00 +34°C° 0 mm 3 m/s 753 mmHg 43%
    14:00 +35°C° 0 mm 3 m/s 752 mmHg 41%
    15:00 +34°C° 0 mm 4 m/s 752 mmHg 46%
    16:00 +33°C° 0 mm 4 m/s 753 mmHg 50%
    17:00 +32°C° 0 mm 4 m/s 753 mmHg 54%
    18:00 +30°C° 0 mm 4 m/s 753 mmHg 62%
    19:00 +28°C° 0 mm 4 m/s 754 mmHg 70%
    20:00 +27°C° 0 mm 3 m/s 755 mmHg 78%
    21:00 +27°C° 0 mm 3 m/s 755 mmHg 79%
    22:00 +27°C° 0 mm 3 m/s 755 mmHg 80%
    23:00 +27°C° 0 mm 3 m/s 755 mmHg 81%
    Mostrar mais